RH
37 37 35 35 33 34 34 37 38 35 36 38 37 32 33 32 30 29 28 27 29 30 31 32 33 33 33 34 34 36 37 38 42 45 43 40 37 31 29 33 41 53 66 70
43 41 33 28 29 32 34 37 38 35 34 35 34 27 25 23 20 20 20 22 24 25 29 32 32 31 32 36 35 37 37 38 40 46 45 42 36 30 28 36 44 56 67 74
41 37 30 26 27 28 30 34 32 32 28 26 26 21 19 20 19 18 18 19 20 22 25 28 29 31 32 34 36 38 37 39 42 46 47 45 36 26 26 34 44 52 68 78
45 41 36 29 28 26 28 25 26 26 25 27 29 29 21 19 17 18 18 18 20 23 25 26 28 29 32 36 39 39 42 41 44 46 48 45 33 21 23 34 43 54 69 83
40 41 34 32 27 28 27 25 27 31 33 33 38 37 30 23 19 19 21 23 25 29 29 25 25 28 31 35 41 41 45 47 47 47 50 46 31 20 25 36 50 65 68 74
30 30 32 36 32 30 28 34 39 41 40 46 37 36 31 27 25 26 27 30 34 34 31 31 27 27 30 34 42 46 46 48 51 52 52 45 26 21 30 41 55 70 69 74
19 19 19 22 29 32 32 38 48 58 61 46 38 41 24 29 30 35 37 35 37 39 38 38 33 29 33 36 45 49 48 48 52 55 52 40 24 24 32 45 56 73 72 66
34 26 16 13 18 27 32 36 45 52 53 44 46 49 36 32 38 37 38 43 44 39 39 44 42 35 34 42 48 50 50 51 52 56 49 32 23 28 35 45 60 78 75 72
36 29 24 27 27 24 26 35 37 44 43 51 44 38 32 36 36 37 41 41 43 46 45 45 47 41 41 50 51 49 53 52 53 53 45 27 25 31 39 45 59 83 82 79
44 40 31 34 33 33 31 30 40 50 58 55 45 44 43 39 42 43 44 46 48 54 57 58 57 50 54 58 59 58 53 51 52 52 38 26 27 34 40 45 49 72 82 83
58 47 39 31 36 42 42 40 40 41 48 52 47 42 41 46 48 52 54 53 54 62 70 73 66 58 63 64 58 56 53 49 52 50 34 25 28 35 39 44 47 50 59 71
70 67 58 43 39 46 44 45 44 51 48 55 54 41 46 48 50 53 58 57 65 81 87 82 74 66 67 64 61 54 54 53 56 47 32 26 29 34 38 43 47 49 51 53
79 76 76 57 49 48 54 53 49 50 50 49 63 53 57 60 59 60 68 67 69 86 93 86 75 71 72 69 65 61 62 61 63 51 35 29 32 34 39 43 48 51 53 55
76 79 77 74 81 73 65 55 56 57 65 62 63 62 61 64 65 69 82 74 83 90 97 96 94 83 78 76 73 72 68 68 65 60 46 35 33 34 39 45 49 52 55 57
82 85 79 72 76 72 77 77 61 65 64 67 63 63 68 71 75 81 84 82 91 95 97 97 97 90 84 81 78 73 70 75 71 68 58 49 40 35 38 41 47 52 55 55
90 91 81 73 73 81 77 79 75 77 70 81 73 68 74 76 79 88 87 88 93 96 97 97 99 95 89 87 82 78 80 80 81 74 70 65 59 49 43 41 44 48 53 55
96 92 93 78 78 76 77 66 62 71 71 65 62 66 73 85 90 88 88 90 90 90 96 94 96 93 92 92 87 82 85 87 89 85 83 78 71 66 62 57 49 47 49 53
93 87 84 81 74 78 78 63 66 67 66 68 67 67 77 87 90 93 91 92 92 93 91 93 94 96 95 91 90 90 88 93 91 92 90 90 84 78 78 76 71 64 57 54
80 84 82 81 86 67 79 80 82 85 90 90 95 93 86 84 89 89 88 85 84 87 89 92 91 91 92 91 91 90 84 83 85 86 86 89 89 85 82 82 80 76 72 70
78 76 76 76 80 78 69 83 79 78 82 87 90 90 83 76 81 80 76 77 83 81 80 88 88 85 89 87 86 82 79 82 83 87 86 88 87 85 78 76 78 79 82 83
82 85 79 69 72 66 67 82 76 84 76 77 80 82 80 79 78 80 80 76 82 83 83 88 82 78 82 83 83 80 79 79 78 78 78 74 74 72 70 69 70 72 79 85
81 80 82 74 78 74 62 74 76 77 75 77 81 84 80 79 73 73 79 87 84 82 84 88 81 83 76 77 79 78 75 76 76 72 69 66 65 66 67 65 65 63 63 74
89 92 92 82 71 69 76 82 83 79 74 73 73 76 79 82 79 75 77 83 95 94 95 98 96 91 85 80 82 78 76 74 72 70 64 66 65 65 64 60 59 63 65 67
91 95 98 95 92 87 86 90 88 88 88 81 75 79 85 83 78 73 76 81 94 99 99 97 93 91 81 73 65 63 59 61 60 61 63 63 65 67 68 66 67 69 69 71
93 97 98 96 99 98 94 95 98 96 89 84 79 74 80 82 78 69 69 73 86 98 97 97 95 92 89 84 81 74 72 68 63 59 56 58 62 64 69 71 72 73 74 76
97 98 97 98 98 98 98 98 98 93 90 86 81 81 77 73 73 68 67 68 67 77 92 94 93 92 85 82 83 83 82 79 72 67 64 63 59 61 64 66 68 74 79 82